Regional Weather Roundup
Issued by NWS Upton, NY

Current Version | Previous Version | Graphics & Text | Print | Product List | Glossary Off
Versions: 1 2 3 4 5 6 7 8 9 10 11 12 13 14 15 16 17 18 19 20 21 22 23 24 25 26 27 28 29 30 31 32 33 34 35 36 37 38 39 40 41 42 43 44 45 46 47 48 49 50

077
ASUS41 KOKX 081004
RWROKX

REGIONAL WEATHER ROUNDUP
NATIONAL WEATHER SERVICE NEW YORK NY
500 AM EST MON FEB 08 2016

NOTE: "FAIR" INDICATES FEW OR NO CLOUDS BELOW 12,000 FEET WITH NO
SIGNIFICANT WEATHER AND/OR OBSTRUCTIONS TO VISIBILITY.

NYZ071-072-176-178-NJZ106-104-081100-
NEW YORK CITY METRO AREA


CITY           SKY/WX    TMP DP  RH WIND       PRES   REMARKS
CENTRAL PARK   CLOUDY    38  26  62 NE16G25   29.76S WCI  29
LAGUARDIA APRT CLOUDY    39  28  64 NE16G25   29.75R WCI  30
KENNEDY INTL   CLOUDY    38  28  67 NE20G33   29.75R WCI  28
NEWARK/LIBERTY CLOUDY    37  28  70 NE15      29.75S WCI  28
BRNX BOT. GARD   N/A     37  28  70 NE14      29.75R WCI  29
TETERBORO      CLOUDY    38  26  62 NE14G23   29.75S WCI  30
$$

NYZ177-179-078>081-081100-
LONG ISLAND NEW YORK

CITY           SKY/WX    TMP DP  RH WIND       PRES   REMARKS
FARMINGDALE    CLOUDY    38  29  70 NE15G25   29.73R WCI  29
ISLIP          CLOUDY    37  29  72 NE20G28   29.70S WCI  27
SHIRLEY        CLOUDY    38  29  70 NE10G25   29.72S WCI  31
RIVERHEAD        N/A     37  28  70 E13       29.69S WCI  29
WESTHAMPTON    CLOUDY    38  29  70 NE18G36   29.71F WCI  28
EAST HAMPTON   CLOUDY    37  29  74 NE20G33   29.71F WCI  26
MONTAUK POINT    N/A     35  31  85 NE23G33   29.73R WCI  23
$$

NYZ052-065-067-081100-
HUDSON VALLEY

CITY           SKY/WX    TMP DP  RH WIND       PRES   REMARKS
WHITE PLAINS   CLOUDY    36  26  67 NE14G23   29.73F WCI  27
NEWBURGH       CLOUDY    36  27  69 NE12G23   29.77F WCI  27
MONTGOMERY     CLOUDY    34  24  67 NE14      29.77F WCI  25
POUGHKEEPSIE   CLOUDY    35  24  64 N7        29.78F WCI  29
ALBANY         CLOUDY    27  19  72 N6        29.87F WCI  20
$$

NJZ001-105-106-008-010-013-015-019>022-104-081100-
NEW JERSEY

CITY           SKY/WX    TMP DP  RH WIND       PRES   REMARKS
NEWARK/LIBERTY CLOUDY    37  28  70 NE15      29.75S WCI  28
TETERBORO      CLOUDY    38  26  62 NE14G23   29.75S WCI  30
CALDWELL       MOCLDY    37  25  61 NE7G16    29.75F WCI  32
MORRISTOWN     MOCLDY    36  25  64 NE10      29.76S WCI  28
SOMERVILLE     CLOUDY    37  25  61 NE7G17    29.74R WCI  32
SUSSEX         MOCLDY    33  23  66 NE8       29.76S WCI  26
ANDOVER          N/A     32  23  69 NE9       29.76S WCI  24
TRENTON        PTCLDY    36  24  62 NE10      29.73R WCI  28
MILLVILLE      CLOUDY    38  26  62 N8G22     29.71R WCI  32
ATLANTIC CITY  CLOUDY    39  29  67 N16G24    29.68R WCI  30
WRIGHTSTOWN    CLOUDY    37  34  90 NE17      29.70R WCI  27
TOMS RIVER     CLOUDY    37  28  70 NE20G28   29.71S WCI  27
BELMAR         CLOUDY    37  25  60 NE18G26   29.72R WCI  27
$$

PAZ047>061-062-071-081100-
EASTERN PENNSYLVANIA

CITY           SKY/WX    TMP DP  RH WIND       PRES   REMARKS
PHILADELPHIA   CLOUDY    38  20  48 NE17      29.74R WCI  28
ALLENTOWN      CLOUDY    35  22  58 NE10      29.76S WCI  27
SCRANTON       PTCLDY    33  21  61 E7        29.75F WCI  27
$$

CTZ002-004>006-009-010-012-RIZ004-006-007-MAZ004-011-015-081100-
SOUTHERN NEW ENGLAND
 IN CT

CITY           SKY/WX    TMP DP  RH WIND       PRES   REMARKS
BRADLEY INTL   CLOUDY    34  26  72 NE21G29   29.80F WCI  22
HARTFORD       CLOUDY    37  26  64 NE17G32   29.79F WCI  27
DANBURY        CLOUDY    35  24  64 NE17G23   29.76F WCI  25
WTRBRY/OXFORD  CLOUDY    34  19  55 NE16G23   29.73F WCI  23
BRIDGEPORT     CLOUDY    37  28  70 NE16G26   29.75F WCI  28
MERIDEN        CLOUDY    37  27  67 N14G22    29.76F WCI  28
NEW HAVEN      CLOUDY    37  28  70 NE14G23   29.74S WCI  28
CHESTER        CLOUDY    36  30  80 NE18G26   29.73F WCI  25
GROTON         CLOUDY    36  30  79 NE23G35   29.74S WCI  24
WILLIMANTIC    CLOUDY    36  25  64 NE22G36   29.78F WCI  25

 IN RI

CITY           SKY/WX    TMP DP  RH WIND       PRES   REMARKS
PROVIDENCE     CLOUDY    35  26  69 NE32G43   29.78F WCI  21
BLOCK ISLAND   CLOUDY    36  30  80 NE30G40   29.72R WCI  22
WESTERLY       CLOUDY    36  27  69 NE17G35   29.75S WCI  26

 IN MA

CITY           SKY/WX    TMP DP  RH WIND       PRES   REMARKS
BOSTON         CLOUDY    32  23  69 NE32G41   29.87F WCI  17
WORCESTER      MIX PCPN  26  20  77 NE16G38   29.80F WCI  14
WESTFIELD      CLOUDY    32  22  66 NE18G30   29.83F WCI  20
PROVINCETOWN   CLOUDY    35  25  66 NE36G45   29.80F WCI  21
NANTUCKET      LGT SNOW  35  32  88 NE30G48   29.70R VSB 1   WCI  22
$$

ANZ330-335-338-340-345-350-353-355-081100-
COASTAL MARINE OBSERVATIONS


STATION/POSITION TIME  SKY/WX   TEMP    WIND        PRES    VSBY  WAVE
                                AIR SEA DIR/SP/G                  HT/PER
                 (UTC)          (F)     (DEG/KT/KT) (MB)    (MI)  (FT/S)
NY HARB ENTRANCE 0850            40 44   30/ 25/ 31 1004.7          8/ 7
4S FIRE IS       NOT AVBL
20S FIRE ISLAND  0850            41 45   40/ 29/ 37 1003.4         12/ 8
GREAT SOUTH BAY  NOT AVBL
23SW MTP         0950            37 45   60/ 37/ 45 1003.1         16/ 8
HUDSON CANYON    0850            41 50              1000.0         13/ 8
KINGS POINT      0900            38 39   80/ 12/ 21 1006.6
EXECUTION ROCKS  NOT AVBL
CENTRAL LI SOUND 0900            39      50/ 21/ 25   N/A           3/ 5
EASTERN LI SOUND 0900            40 42   50/ 23/ 37   N/A
ROBBINS REEF     0900            38      40/ 23/ 29 1006.0
$$


>>>>>>>>>>>>>>>>>>>>>>>>>>>> KEY <<<<<<<<<<<<<<<<<<<<<<<<<<<
>                                                          <
>     SKY/WX - SKY CONDITION/PRESENT WEATHER               <
>     TMP    - TEMPERATURE IN FAHRENHEIT                   <
>     DP     - DEWPOINT IN FAHRENHEIT                      <
>     RH     - RELATIVE HUMIDITY IN PERCENT                <
>     WIND   - DIRECTION AND SPEED IN MPH                  <
>     PRES   - MEAN SEA LEVEL PRESSURE IN INCHES OF HG     <
>     WCI    - WIND CHILL INDEX                            <
>     VSB    - VISIBILITY IN MILES                         <
>     HX     - HEAT INDEX                                  <
>     TC     - TEMPERATURE IN CELSIUS                      <
>     VRB    - VARIABLE WIND DIRECTION                     <
>                                                          <
>>>>>>>>>>>>>>>>>>>>>>>>>>>> KEY <<<<<<<<<<<<<<<<<<<<<<<<<<<






USA.gov is the U.S. government's official web portal to all federal, state and local government web resources and services.